Zurück zum Katalog

DELTA 1 DEB

AktivSSO
NORAD 13827·DEBRIS·🇺🇸 United States

Gestartet Mar 5, 1978 von Vandenberg Space Force Base

Loading…

Nächste Überflüge (nächste 24 Stunden)

TLE

AktuellSource: Space-Track

Epoche: Sep 14, 2026, 12:01 UTC

1 13827U 78026FW  26257.50084728  .00001211  00000-0  23879-3 0  9997
2 13827  98.4138 275.5420 0059351 226.5352 291.3349 14.63321354293310

Verfolge DELTA 1 DEB in Echtzeit mit AllMySat

Download on the App Store